7 * 24
多渠道服务支持
STARLINK-37598(NORAD编号69357)是美国太空探索技术公司(SpaceX)星链星座的低轨通信卫星,推测属于2026年中上旬发射的批次,当前处于在轨运行状态。作为星链全球组网的组成部分,该卫星主要承担天基互联网传输功能,服务于全球范围的网络覆盖需求,特别是偏远地区、应急通信场景的网络供给。 目前公开数据显示其同批次星链卫星轨道周期约94分钟,运行于低地球轨道,依托星链星座的组网架构,可与同轨道面卫星、地面网关站协同完成通信信号的中继传输,为个人用户、行业终端提供低延迟、广覆盖的互联网接入服务。
美国
(US)
| 数据来源 | 国际轨道数据 |
| 星历时间: | 2026-06-13T04:00:02+0800 7小时前 查看轨道信息 |
| 半长轴: | 6698.068km |
| 偏心率: | 0.0001234 |
| 轨道倾角: | 53.158° |
| 近地点辐角 | 67.492° |
| 升交点赤经 | 263.593° |
| 平近点角 | 82.083° |
| 近地点: | 319.104km |
| 远地点: | 320.758km |
| 周期: | 90.925分钟 |
| 每日圈数: | 15.837204 |